Cloud_Cover
100 100 100 47 100 100 86 46 5 70 5 100 100 100 100 61 100 100 100 100 100 88 5 62 96 5 5 5 4 1 0 0 0 0 0 4 28 68 24 58 28 88 98 100
100 100 100 100 100 100 100 83 70 99 78 100 100 100 100 94 99 100 100 100 100 100 100 11 5 100 10 42 5 15 5 2 0 0 0 0 0 0 0 0 4 2 37 100
100 100 100 100 100 100 100 100 100 100 100 96 94 84 100 100 99 93 97 100 100 100 100 42 65 6 91 78 61 94 11 5 0 5 1 0 0 0 0 1 12 19 90 100
100 100 100 100 100 100 100 100 86 100 100 100 98 85 100 95 95 100 100 100 100 100 100 100 100 29 44 5 37 100 100 82 7 5 5 2 6 5 28 73 82 98 100 100
100 100 96 100 100 100 100 100 100 100 100 100 100 100 100 100 100 100 100 100 52 100 80 100 100 100 100 46 6 38 100 100 94 62 97 2 46 90 97 99 100 100 100 100
100 98 92 100 100 100 100 100 100 100 100 100 76 82 99 100 100 100 100 100 100 100 100 100 100 100 100 100 100 66 10 99 100 45 100 100 100 100 100 100 100 100 100 100
100 90 60 99 100 100 100 65 37 32 4 5 5 6 96 100 100 100 100 100 100 100 100 100 100 100 100 100 100 100 99 100 100 100 82 100 100 100 100 100 100 100 100 100
100 100 96 100 100 88 91 48 5 14 100 70 5 100 100 100 100 100 100 100 100 100 100 100 100 99 100 100 100 100 100 100 100 100 100 100 100 100 100 100 100 100 100 100
100 96 88 100 100 100 100 100 89 29 94 100 98 89 54 98 100 100 100 100 100 100 100 100 100 100 100 100 100 100 100 100 100 100 100 100 100 100 100 100 100 100 100 100
75 99 100 100 100 100 100 100 100 100 100 94 100 100 100 61 56 100 100 100 100 100 100 100 100 100 100 100 100 100 100 100 100 100 100 100 100 100 100 100 100 100 100 100
5 5 5 5 35 3 63 87 88 99 97 10 36 99 100 100 100 100 97 71 95 100 100 100 100 100 100 100 100 100 100 100 100 100 100 100 100 100 100 100 100 100 100 100
3 98 98 60 10 87 13 1 4 2 4 3 5 72 100 44 45 59 69 89 100 97 93 96 100 100 100 100 100 100 100 100 100 100 100 100 100 100 100 100 100 100 100 100
96 92 100 66 100 100 85 51 23 5 5 5 8 52 100 100 100 99 82 98 99 100 100 100 100 100 100 100 100 100 100 100 100 100 100 100 100 100 100 100 100 100 100 100
100 100 78 100 100 100 99 82 62 52 15 33 60 76 100 100 100 100 100 100 100 100 100 100 100 100 100 100 100 100 100 100 100 100 100 100 100 100 100 100 100 100 100 100
100 100 100 100 100 100 100 100 100 98 87 97 100 100 100 100 100 100 100 100 100 100 100 100 95 100 100 100 100 100 100 100 100 100 100 100 100 100 100 100 100 100 100 100
99 100 100 100 100 100 100 100 100 100 100 100 100 100 100 100 100 100 100 100 100 100 100 100 100 100 100 100 100 100 100 100 100 100 100 100 100 100 100 100 100 100 100 100
99 92 100 100 100 100 100 100 100 100 100 100 100 100 100 100 100 100 100 100 100 100 100 100 100 100 100 100 100 100 100 100 100 100 100 100 100 100 100 100 100 100 100 100
99 95 100 100 100 100 100 100 100 100 100 100 100 100 100 100 100 100 100 100 100 100 100 100 100 100 100 100 100 100 100 100 100 100 100 100 100 100 100 100 100 100 100 100
100 100 100 100 100 100 100 100 100 100 100 100 100 100 100 100 100 100 100 100 100 100 100 100 100 100 100 100 100 100 100 100 100 100 100 100 100 100 100 100 100 100 100 100
100 100 100 100 100 100 100 100 100 100 100 100 100 100 100 100 100 100 100 100 100 100 100 100 100 100 100 100 100 100 100 100 100 100 100 100 100 100 100 100 100 100 100 100
100 100 100 100 100 100 100 100 100 100 100 100 100 100 100 100 100 100 100 100 100 100 100 100 100 100 100 100 100 100 100 100 100 100 100 100 100 100 100 100 98 100 100 100
100 100 100 100 100 100 100 100 100 100 100 100 100 100 100 100 100 100 100 100 100 100 100 100 100 100 100 100 100 100 100 100 100 100 100 100 100 94 87 100 100 100 100 100
100 100 100 100 100 100 100 100 100 100 100 100 100 100 100 100 100 100 100 100 99 100 100 100 100 100 100 100 100 100 100 100 100 99 100 100 100 100 98 100 100 92 79 70
100 100 100 100 100 100 100 100 100 100 100 100 100 100 100 100 100 100 100 100 100 100 100 100 100 98 100 100 99 100 100 100 100 96 67 78 100 100 99 82 68 70 50 50
100 100 100 100 100 100 100 100 100 100 100 100 100 100 100 100 100 100 100 100 100 100 100 100 100 100 100 100 100 100 100 100 96 96 96 95 99 99 100 92 72 68 73 88
100 100 100 100 100 100 100 100 100 100 100 100 100 100 100 100 100 100 100 100 100 100 99 98 96 96 89 85 76 56 55 44 40 69 79 98 99 96 80 70 64 69 87 95
100 100 100 100 99 58 39 57 64 99 79 99 100 100 52 6 8 15 36 23 18 6 69 98 100 91 97 92 87 93 98 99 88 100 100 100 88 80 71 73 88 90 94 94